Year,Month,Day,Hour,Minute,Value (Times are PST for windgust in km/hr)
2006,12,14,00,00,9.60
2006,12,14,00,01,4.80
2006,12,14,00,02,6.40
2006,12,14,00,03,4.80
2006,12,14,00,04,4.80
2006,12,14,00,05,4.80
2006,12,14,00,06,1.60
2006,12,14,00,07,3.20
2006,12,14,00,08,3.20
2006,12,14,00,09,0.00
2006,12,14,00,10,1.60
2006,12,14,00,11,0.00
2006,12,14,00,12,0.00
2006,12,14,00,13,1.60
2006,12,14,00,14,0.00
2006,12,14,00,15,0.00
2006,12,14,00,16,0.00
2006,12,14,00,17,0.00
2006,12,14,00,18,0.00
2006,12,14,00,19,0.00
2006,12,14,00,20,1.60
2006,12,14,00,21,1.60
2006,12,14,00,22,0.00
2006,12,14,00,23,0.00
2006,12,14,00,24,1.60
2006,12,14,00,25,1.60
2006,12,14,00,26,1.60
2006,12,14,00,27,3.20
2006,12,14,00,28,3.20
2006,12,14,00,29,3.20
2006,12,14,00,30,3.20
2006,12,14,00,31,3.20
2006,12,14,00,32,3.20
2006,12,14,00,33,1.60
2006,12,14,00,34,3.20
2006,12,14,00,35,3.20
2006,12,14,00,36,3.20
2006,12,14,00,37,3.20
2006,12,14,00,38,3.20
2006,12,14,00,39,3.20
2006,12,14,00,40,3.20
2006,12,14,00,41,3.20
2006,12,14,00,42,1.60
2006,12,14,00,43,1.60
2006,12,14,00,44,1.60
2006,12,14,00,45,1.60
2006,12,14,00,46,1.60
2006,12,14,00,47,0.00
2006,12,14,00,48,0.00
2006,12,14,00,49,0.00
2006,12,14,00,50,0.00
2006,12,14,00,51,0.00
2006,12,14,00,52,0.00
2006,12,14,00,53,0.00
2006,12,14,00,54,0.00
2006,12,14,00,55,0.00
2006,12,14,00,56,0.00
2006,12,14,00,57,0.00
2006,12,14,00,58,0.00
2006,12,14,00,59,0.00
2006,12,14,01,00,1.60
2006,12,14,01,01,1.60
2006,12,14,01,02,0.00
2006,12,14,01,03,0.00
2006,12,14,01,04,0.00
2006,12,14,01,05,0.00
2006,12,14,01,06,0.00
2006,12,14,01,07,0.00
2006,12,14,01,08,1.60
2006,12,14,01,09,0.00
2006,12,14,01,10,1.60
2006,12,14,01,11,1.60
2006,12,14,01,12,1.60
2006,12,14,01,13,0.00
2006,12,14,01,14,1.60
2006,12,14,01,15,1.60
2006,12,14,01,16,1.60
2006,12,14,01,17,1.60
2006,12,14,01,18,1.60
2006,12,14,01,19,3.20
2006,12,14,01,20,1.60
2006,12,14,01,21,1.60
2006,12,14,01,22,3.20
2006,12,14,01,23,3.20
2006,12,14,01,24,3.20
2006,12,14,01,25,3.20
2006,12,14,01,26,3.20
2006,12,14,01,27,3.20
2006,12,14,01,28,4.80
2006,12,14,01,29,3.20
2006,12,14,01,30,4.80
2006,12,14,01,31,4.80
2006,12,14,01,32,4.80
2006,12,14,01,33,4.80
2006,12,14,01,34,4.80
2006,12,14,01,35,4.80
2006,12,14,01,36,4.80
2006,12,14,01,37,4.80
2006,12,14,01,38,4.80
2006,12,14,01,39,3.20
2006,12,14,01,40,3.20
2006,12,14,01,41,3.20
2006,12,14,01,42,3.20
2006,12,14,01,43,3.20
2006,12,14,01,44,3.20
2006,12,14,01,45,3.20
2006,12,14,01,46,3.20
2006,12,14,01,47,3.20
2006,12,14,01,48,3.20
2006,12,14,01,49,3.20
2006,12,14,01,50,3.20
2006,12,14,01,51,3.20
2006,12,14,01,52,4.80
2006,12,14,01,53,3.20
2006,12,14,01,54,4.80
2006,12,14,01,55,3.20
2006,12,14,01,56,3.20
2006,12,14,01,57,1.60
2006,12,14,01,58,1.60
2006,12,14,01,59,1.60
2006,12,14,02,00,0.00
2006,12,14,02,01,1.60
2006,12,14,02,02,0.00
2006,12,14,02,03,0.00
2006,12,14,02,04,0.00
2006,12,14,02,05,0.00
2006,12,14,02,06,0.00
2006,12,14,02,07,1.60
2006,12,14,02,08,3.20
2006,12,14,02,09,3.20
2006,12,14,02,10,3.20
2006,12,14,02,11,3.20
2006,12,14,02,12,4.80
2006,12,14,02,13,3.20
2006,12,14,02,14,3.20
2006,12,14,02,15,1.60
2006,12,14,02,16,1.60
2006,12,14,02,17,1.60
2006,12,14,02,18,3.20
2006,12,14,02,19,1.60
2006,12,14,02,20,1.60
2006,12,14,02,21,1.60
2006,12,14,02,22,4.80
2006,12,14,02,23,4.80
2006,12,14,02,24,1.60
2006,12,14,02,25,1.60
2006,12,14,02,26,1.60
2006,12,14,02,27,0.00
2006,12,14,02,28,0.00
2006,12,14,02,29,1.60
2006,12,14,02,30,0.00
2006,12,14,02,31,0.00
2006,12,14,02,32,1.60
2006,12,14,02,33,0.00
2006,12,14,02,34,0.00
2006,12,14,02,35,0.00
2006,12,14,02,36,0.00
2006,12,14,02,37,0.00
2006,12,14,02,38,1.60
2006,12,14,02,39,0.00
2006,12,14,02,40,0.00
2006,12,14,02,41,0.00
2006,12,14,02,42,1.60
2006,12,14,02,43,0.00
2006,12,14,02,44,0.00
2006,12,14,02,45,0.00
2006,12,14,02,46,0.00
2006,12,14,02,47,0.00
2006,12,14,02,48,0.00
2006,12,14,02,49,0.00
2006,12,14,02,50,0.00
2006,12,14,02,51,0.00
2006,12,14,02,52,0.00
2006,12,14,02,53,0.00
2006,12,14,02,54,0.00
2006,12,14,02,55,0.00
2006,12,14,02,56,0.00
2006,12,14,02,57,0.00
2006,12,14,02,58,0.00
2006,12,14,02,59,0.00
2006,12,14,03,00,0.00
2006,12,14,03,01,0.00
2006,12,14,03,02,0.00
2006,12,14,03,03,0.00
2006,12,14,03,04,0.00
2006,12,14,03,05,0.00
2006,12,14,03,06,0.00
2006,12,14,03,07,0.00
2006,12,14,03,08,0.00
2006,12,14,03,09,0.00
2006,12,14,03,10,0.00
2006,12,14,03,11,0.00
2006,12,14,03,12,0.00
2006,12,14,03,13,0.00
2006,12,14,03,14,0.00
2006,12,14,03,15,0.00
2006,12,14,03,16,0.00
2006,12,14,03,17,0.00
2006,12,14,03,18,0.00
2006,12,14,03,19,0.00
2006,12,14,03,20,0.00
2006,12,14,03,21,1.60
2006,12,14,03,22,1.60
2006,12,14,03,23,3.20
2006,12,14,03,24,3.20
2006,12,14,03,25,4.80
2006,12,14,03,26,4.80
2006,12,14,03,27,3.20
2006,12,14,03,28,3.20
2006,12,14,03,29,3.20
2006,12,14,03,30,1.60
2006,12,14,03,31,1.60
2006,12,14,03,32,3.20
2006,12,14,03,33,3.20
2006,12,14,03,34,3.20
2006,12,14,03,35,3.20
2006,12,14,03,36,3.20
2006,12,14,03,37,1.60
2006,12,14,03,38,1.60
2006,12,14,03,39,1.60
2006,12,14,03,40,1.60
2006,12,14,03,41,3.20
2006,12,14,03,42,3.20
2006,12,14,03,43,4.80
2006,12,14,03,44,4.80
2006,12,14,03,45,4.80
2006,12,14,03,46,4.80
2006,12,14,03,47,3.20
2006,12,14,03,48,3.20
2006,12,14,03,49,3.20
2006,12,14,03,50,3.20
2006,12,14,03,51,3.20
2006,12,14,03,52,3.20
2006,12,14,03,53,3.20
2006,12,14,03,54,3.20
2006,12,14,03,55,3.20
2006,12,14,03,56,4.80
2006,12,14,03,57,4.80
2006,12,14,03,58,4.80
2006,12,14,03,59,4.80
2006,12,14,04,00,3.20
2006,12,14,04,01,3.20
2006,12,14,04,02,3.20
2006,12,14,04,03,1.60
2006,12,14,04,04,1.60
2006,12,14,04,05,1.60
2006,12,14,04,06,1.60
2006,12,14,04,07,1.60
2006,12,14,04,08,1.60
2006,12,14,04,09,0.00
2006,12,14,04,10,0.00
2006,12,14,04,11,0.00
2006,12,14,04,12,0.00
2006,12,14,04,13,0.00
2006,12,14,04,14,0.00
2006,12,14,04,15,0.00
2006,12,14,04,16,0.00
2006,12,14,04,17,1.60
2006,12,14,04,18,3.20
2006,12,14,04,19,3.20
2006,12,14,04,20,8.10
2006,12,14,04,21,4.80
2006,12,14,04,22,8.10
2006,12,14,04,23,17.70
2006,12,14,04,24,11.30
2006,12,14,04,25,4.80
2006,12,14,04,26,8.10
2006,12,14,04,27,12.90
2006,12,14,04,28,16.10
2006,12,14,04,29,14.50
2006,12,14,04,30,14.50
2006,12,14,04,31,14.50
2006,12,14,04,32,17.70
2006,12,14,04,33,17.70
2006,12,14,04,34,11.30
2006,12,14,04,35,12.90
2006,12,14,04,36,16.10
2006,12,14,04,37,9.60
2006,12,14,04,38,14.50
2006,12,14,04,39,11.30
2006,12,14,04,40,16.10
2006,12,14,04,41,12.90
2006,12,14,04,42,11.30
2006,12,14,04,43,17.70
2006,12,14,04,44,8.10
2006,12,14,04,45,14.50
2006,12,14,04,46,9.60
2006,12,14,04,47,8.10
2006,12,14,04,48,11.30
2006,12,14,04,49,9.60
2006,12,14,04,50,8.10
2006,12,14,04,51,11.30
2006,12,14,04,52,8.10
2006,12,14,04,53,9.60
2006,12,14,04,54,9.60
2006,12,14,04,55,9.60
2006,12,14,04,56,8.10
2006,12,14,04,57,6.40
2006,12,14,04,58,8.10
2006,12,14,04,59,6.40
2006,12,14,05,00,8.10
2006,12,14,05,01,8.10
2006,12,14,05,02,8.10
2006,12,14,05,03,14.50
2006,12,14,05,04,12.90
2006,12,14,05,05,9.60
2006,12,14,05,06,16.10
2006,12,14,05,07,14.50
2006,12,14,05,08,14.50
2006,12,14,05,09,17.70
2006,12,14,05,10,12.90
2006,12,14,05,11,14.50
2006,12,14,05,12,16.10
2006,12,14,05,13,9.60
2006,12,14,05,14,8.10
2006,12,14,05,15,8.10
2006,12,14,05,16,8.10
2006,12,14,05,17,9.60
2006,12,14,05,18,19.30
2006,12,14,05,19,12.90
2006,12,14,05,20,19.30
2006,12,14,05,21,8.10
2006,12,14,05,22,6.40
2006,12,14,05,23,11.30
2006,12,14,05,24,14.50
2006,12,14,05,25,9.60
2006,12,14,05,26,12.90
2006,12,14,05,27,8.10
2006,12,14,05,28,11.30
2006,12,14,05,29,9.60
2006,12,14,05,30,16.10
2006,12,14,05,31,16.10
2006,12,14,05,32,20.90
2006,12,14,05,33,14.50
2006,12,14,05,34,9.60
2006,12,14,05,35,6.40
2006,12,14,05,36,14.50
2006,12,14,05,37,14.50
2006,12,14,05,38,17.70
2006,12,14,05,39,16.10
2006,12,14,05,40,17.70
2006,12,14,05,41,11.30
2006,12,14,05,42,8.10
2006,12,14,05,43,14.50
2006,12,14,05,44,16.10
2006,12,14,05,45,11.30
2006,12,14,05,46,11.30
2006,12,14,05,47,9.60
2006,12,14,05,48,8.10
2006,12,14,05,49,9.60
2006,12,14,05,50,16.10
2006,12,14,05,51,11.30
2006,12,14,05,52,16.10
2006,12,14,05,53,17.70
2006,12,14,05,54,11.30
2006,12,14,05,55,19.30
2006,12,14,05,56,11.30
2006,12,14,05,57,9.60
2006,12,14,05,58,11.30
2006,12,14,05,59,9.60
2006,12,14,06,00,9.60
2006,12,14,06,01,8.10
2006,12,14,06,02,8.10
2006,12,14,06,03,9.60
2006,12,14,06,04,9.60
2006,12,14,06,05,4.80
2006,12,14,06,06,16.10
2006,12,14,06,07,8.10
2006,12,14,06,08,14.50
2006,12,14,06,09,11.30
2006,12,14,06,10,9.60
2006,12,14,06,11,9.60
2006,12,14,06,12,8.10
2006,12,14,06,13,11.30
2006,12,14,06,14,11.30
2006,12,14,06,15,8.10
2006,12,14,06,16,8.10
2006,12,14,06,17,8.10
2006,12,14,06,18,8.10
2006,12,14,06,19,6.40
2006,12,14,06,20,11.30
2006,12,14,06,21,6.40
2006,12,14,06,22,9.60
2006,12,14,06,23,8.10
2006,12,14,06,24,6.40
2006,12,14,06,25,8.10
2006,12,14,06,26,6.40
2006,12,14,06,27,4.80
2006,12,14,06,28,1.60
2006,12,14,06,29,1.60
2006,12,14,06,30,1.60
2006,12,14,06,31,4.80
2006,12,14,06,32,6.40
2006,12,14,06,33,9.60
2006,12,14,06,34,4.80
2006,12,14,06,35,16.10
2006,12,14,06,36,11.30
2006,12,14,06,37,6.40
2006,12,14,06,38,9.60
2006,12,14,06,39,9.60
2006,12,14,06,40,8.10
2006,12,14,06,41,8.10
2006,12,14,06,42,6.40
2006,12,14,06,43,9.60
2006,12,14,06,44,9.60
2006,12,14,06,45,4.80
2006,12,14,06,46,9.60
2006,12,14,06,47,4.80
2006,12,14,06,48,9.60
2006,12,14,06,49,11.30
2006,12,14,06,50,14.50
2006,12,14,06,51,8.10
2006,12,14,06,52,6.40
2006,12,14,06,53,9.60
2006,12,14,06,54,6.40
2006,12,14,06,55,4.80
2006,12,14,06,56,11.30
2006,12,14,06,57,9.60
2006,12,14,06,58,11.30
2006,12,14,06,59,4.80
2006,12,14,07,00,8.10
2006,12,14,07,01,8.10
2006,12,14,07,02,8.10
2006,12,14,07,03,8.10
2006,12,14,07,04,8.10
2006,12,14,07,05,8.10
2006,12,14,07,06,11.30
2006,12,14,07,07,4.80
2006,12,14,07,08,8.10
2006,12,14,07,09,6.40
2006,12,14,07,10,9.60
2006,12,14,07,11,4.80
2006,12,14,07,12,9.60
2006,12,14,07,13,9.60
2006,12,14,07,14,8.10
2006,12,14,07,15,8.10
2006,12,14,07,16,8.10
2006,12,14,07,17,11.30
2006,12,14,07,18,9.60
2006,12,14,07,19,9.60
2006,12,14,07,20,6.40
2006,12,14,07,21,8.10
2006,12,14,07,22,8.10
2006,12,14,07,23,8.10
2006,12,14,07,24,11.30
2006,12,14,07,25,8.10
2006,12,14,07,26,9.60
2006,12,14,07,27,11.30
2006,12,14,07,28,9.60
2006,12,14,07,29,11.30
2006,12,14,07,30,6.40
2006,12,14,07,31,6.40
2006,12,14,07,32,6.40
2006,12,14,07,33,11.30
2006,12,14,07,34,6.40
2006,12,14,07,35,14.50
2006,12,14,07,36,8.10
2006,12,14,07,37,14.50
2006,12,14,07,38,16.10
2006,12,14,07,39,12.90
2006,12,14,07,40,11.30
2006,12,14,07,41,14.50
2006,12,14,07,42,6.40
2006,12,14,07,43,17.70
2006,12,14,07,44,11.30
2006,12,14,07,45,9.60
2006,12,14,07,46,9.60
2006,12,14,07,47,9.60
2006,12,14,07,48,9.60
2006,12,14,07,49,16.10
2006,12,14,07,50,16.10
2006,12,14,07,51,8.10
2006,12,14,07,52,11.30
2006,12,14,07,53,14.50
2006,12,14,07,54,11.30
2006,12,14,07,55,16.10
2006,12,14,07,56,11.30
2006,12,14,07,57,6.40
2006,12,14,07,58,6.40
2006,12,14,07,59,11.30
2006,12,14,08,00,12.90
2006,12,14,08,01,16.10
2006,12,14,08,02,16.10
2006,12,14,08,03,8.10
2006,12,14,08,04,8.10
2006,12,14,08,05,11.30
2006,12,14,08,06,16.10
2006,12,14,08,07,12.90
2006,12,14,08,08,16.10
2006,12,14,08,09,16.10
2006,12,14,08,10,16.10
2006,12,14,08,11,17.70
2006,12,14,08,12,14.50
2006,12,14,08,13,9.60
2006,12,14,08,14,12.90
2006,12,14,08,15,19.30
2006,12,14,08,16,22.50
2006,12,14,08,17,20.90
2006,12,14,08,18,9.60
2006,12,14,08,19,19.30
2006,12,14,08,20,16.10
2006,12,14,08,21,9.60
2006,12,14,08,22,8.10
2006,12,14,08,23,11.30
2006,12,14,08,24,16.10
2006,12,14,08,25,17.70
2006,12,14,08,26,19.30
2006,12,14,08,27,11.30
2006,12,14,08,28,16.10
2006,12,14,08,29,14.50
2006,12,14,08,30,9.60
2006,12,14,08,31,11.30
2006,12,14,08,32,8.10
2006,12,14,08,33,12.90
2006,12,14,08,34,17.70
2006,12,14,08,35,20.90
2006,12,14,08,36,19.30
2006,12,14,08,37,12.90
2006,12,14,08,38,11.30
2006,12,14,08,39,11.30
2006,12,14,08,40,17.70
2006,12,14,08,41,16.10
2006,12,14,08,42,22.50
2006,12,14,08,43,17.70
2006,12,14,08,44,19.30
2006,12,14,08,45,19.30
2006,12,14,08,46,9.60
2006,12,14,08,47,17.70
2006,12,14,08,48,17.70
2006,12,14,08,49,16.10
2006,12,14,08,50,22.50
2006,12,14,08,51,19.30
2006,12,14,08,52,16.10
2006,12,14,08,53,19.30
2006,12,14,08,54,8.10
2006,12,14,08,55,16.10
2006,12,14,08,56,16.10
2006,12,14,08,57,11.30
2006,12,14,08,58,11.30
2006,12,14,08,59,16.10
2006,12,14,09,00,16.10
2006,12,14,09,01,9.60
2006,12,14,09,02,17.70
2006,12,14,09,03,14.50
2006,12,14,09,04,11.30
2006,12,14,09,05,12.90
2006,12,14,09,06,9.60
2006,12,14,09,07,12.90
2006,12,14,09,08,9.60
2006,12,14,09,09,12.90
2006,12,14,09,10,8.10
2006,12,14,09,11,16.10
2006,12,14,09,12,19.30
2006,12,14,09,13,17.70
2006,12,14,09,14,11.30
2006,12,14,09,15,19.30
2006,12,14,09,16,20.90
2006,12,14,09,17,14.50
2006,12,14,09,18,17.70
2006,12,14,09,19,19.30
2006,12,14,09,20,12.90
2006,12,14,09,21,16.10
2006,12,14,09,22,16.10
2006,12,14,09,23,19.30
2006,12,14,09,24,20.90
2006,12,14,09,25,16.10
2006,12,14,09,26,22.50
2006,12,14,09,27,25.70
2006,12,14,09,28,19.30
2006,12,14,09,29,22.50
2006,12,14,09,30,19.30
2006,12,14,09,31,16.10
2006,12,14,09,32,16.10
2006,12,14,09,33,14.50
2006,12,14,09,34,19.30
2006,12,14,09,35,16.10
2006,12,14,09,36,20.90
2006,12,14,09,37,16.10
2006,12,14,09,38,17.70
2006,12,14,09,39,14.50
2006,12,14,09,40,16.10
2006,12,14,09,41,14.50
2006,12,14,09,42,22.50
2006,12,14,09,43,20.90
2006,12,14,09,44,20.90
2006,12,14,09,45,16.10
2006,12,14,09,46,20.90
2006,12,14,09,47,20.90
2006,12,14,09,48,14.50
2006,12,14,09,49,14.50
2006,12,14,09,50,14.50
2006,12,14,09,51,11.30
2006,12,14,09,52,14.50
2006,12,14,09,53,19.30
2006,12,14,09,54,14.50
2006,12,14,09,55,17.70
2006,12,14,09,56,14.50
2006,12,14,09,57,12.90
2006,12,14,09,58,19.30
2006,12,14,09,59,20.90
2006,12,14,10,00,19.30
2006,12,14,10,01,17.70
2006,12,14,10,02,19.30
2006,12,14,10,03,22.50
2006,12,14,10,04,22.50
2006,12,14,10,05,16.10
2006,12,14,10,06,27.40
2006,12,14,10,07,19.30
2006,12,14,10,08,20.90
2006,12,14,10,09,19.30
2006,12,14,10,10,17.70
2006,12,14,10,11,14.50
2006,12,14,10,12,19.30
2006,12,14,10,13,22.50
2006,12,14,10,14,19.30
2006,12,14,10,15,17.70
2006,12,14,10,16,11.30
2006,12,14,10,17,11.30
2006,12,14,10,18,25.70
2006,12,14,10,19,24.20
2006,12,14,10,20,20.90
2006,12,14,10,21,25.70
2006,12,14,10,22,30.60
2006,12,14,10,23,22.50
2006,12,14,10,24,20.90
2006,12,14,10,25,27.40
2006,12,14,10,26,25.70
2006,12,14,10,27,24.20
2006,12,14,10,28,16.10
2006,12,14,10,29,17.70
2006,12,14,10,30,19.30
2006,12,14,10,31,22.50
2006,12,14,10,32,20.90
2006,12,14,10,33,24.20
2006,12,14,10,34,16.10
2006,12,14,10,35,16.10
2006,12,14,10,36,25.70
2006,12,14,10,37,20.90
2006,12,14,10,38,17.70
2006,12,14,10,39,17.70
2006,12,14,10,40,25.70
2006,12,14,10,41,20.90
2006,12,14,10,42,16.10
2006,12,14,10,43,16.10
2006,12,14,10,44,17.70
2006,12,14,10,45,24.20
2006,12,14,10,46,12.90
2006,12,14,10,47,19.30
2006,12,14,10,48,16.10
2006,12,14,10,49,16.10
2006,12,14,10,50,22.50
2006,12,14,10,51,19.30
2006,12,14,10,52,17.70
2006,12,14,10,53,12.90
2006,12,14,10,54,9.60
2006,12,14,10,55,20.90
2006,12,14,10,56,14.50
2006,12,14,10,57,20.90
2006,12,14,10,58,17.70
2006,12,14,10,59,14.50
2006,12,14,11,00,16.10
2006,12,14,11,01,11.30
2006,12,14,11,02,11.30
2006,12,14,11,03,24.20
2006,12,14,11,04,24.20
2006,12,14,11,05,19.30
2006,12,14,11,06,14.50
2006,12,14,11,07,20.90
2006,12,14,11,08,20.90
2006,12,14,11,09,19.30
2006,12,14,11,10,16.10
2006,12,14,11,11,17.70
2006,12,14,11,12,16.10
2006,12,14,11,13,19.30
2006,12,14,11,14,17.70
2006,12,14,11,15,24.20
2006,12,14,11,16,20.90
2006,12,14,11,17,20.90
2006,12,14,11,18,25.70
2006,12,14,11,19,22.50
2006,12,14,11,20,25.70
2006,12,14,11,21,24.20
2006,12,14,11,22,19.30
2006,12,14,11,23,12.90
2006,12,14,11,24,14.50
2006,12,14,11,25,9.60
2006,12,14,11,26,14.50
2006,12,14,11,27,17.70
2006,12,14,11,28,16.10
2006,12,14,11,29,14.50
2006,12,14,11,30,16.10
2006,12,14,11,31,19.30
2006,12,14,11,32,14.50
2006,12,14,11,33,16.10
2006,12,14,11,34,17.70
2006,12,14,11,35,24.20
2006,12,14,11,36,17.70
2006,12,14,11,37,9.60
2006,12,14,11,38,11.30
2006,12,14,11,39,11.30
2006,12,14,11,40,16.10
2006,12,14,11,41,14.50
2006,12,14,11,42,16.10
2006,12,14,11,43,9.60
2006,12,14,11,44,8.10
2006,12,14,11,45,20.90
2006,12,14,11,46,16.10
2006,12,14,11,47,17.70
2006,12,14,11,48,17.70
2006,12,14,11,49,17.70
2006,12,14,11,50,19.30
2006,12,14,11,51,8.10
2006,12,14,11,52,16.10
2006,12,14,11,53,8.10
2006,12,14,11,54,19.30
2006,12,14,11,55,14.50
2006,12,14,11,56,9.60
2006,12,14,11,57,9.60
2006,12,14,11,58,6.40
2006,12,14,11,59,9.60
2006,12,14,12,00,11.30
2006,12,14,12,01,14.50
2006,12,14,12,02,16.10
2006,12,14,12,03,16.10
2006,12,14,12,04,19.30
2006,12,14,12,05,14.50
2006,12,14,12,06,14.50
2006,12,14,12,07,16.10
2006,12,14,12,08,9.60
2006,12,14,12,09,9.60
2006,12,14,12,10,16.10
2006,12,14,12,11,16.10
2006,12,14,12,12,20.90
2006,12,14,12,13,16.10
2006,12,14,12,14,12.90
2006,12,14,12,15,19.30
2006,12,14,12,16,20.90
2006,12,14,12,17,24.20
2006,12,14,12,18,20.90
2006,12,14,12,19,22.50
2006,12,14,12,20,16.10
2006,12,14,12,21,22.50
2006,12,14,12,22,6.40
2006,12,14,12,23,9.60
2006,12,14,12,24,17.70
2006,12,14,12,25,9.60
2006,12,14,12,26,6.40
2006,12,14,12,27,9.60
2006,12,14,12,28,22.50
2006,12,14,12,29,20.90
2006,12,14,12,30,22.50
2006,12,14,12,31,19.30
2006,12,14,12,32,9.60
2006,12,14,12,33,11.30
2006,12,14,12,34,8.10
2006,12,14,12,35,12.90
2006,12,14,12,36,16.10
2006,12,14,12,37,14.50
2006,12,14,12,38,14.50
2006,12,14,12,39,9.60
2006,12,14,12,40,12.90
2006,12,14,12,41,11.30
2006,12,14,12,42,17.70
2006,12,14,12,43,19.30
2006,12,14,12,44,14.50
2006,12,14,12,45,17.70
2006,12,14,12,46,17.70
2006,12,14,12,47,14.50
2006,12,14,12,48,9.60
2006,12,14,12,49,8.10
2006,12,14,12,50,6.40
2006,12,14,12,51,11.30
2006,12,14,12,52,14.50
2006,12,14,12,53,11.30
2006,12,14,12,54,16.10
2006,12,14,12,55,16.10
2006,12,14,12,56,17.70
2006,12,14,12,57,16.10
2006,12,14,12,58,11.30
2006,12,14,12,59,11.30
2006,12,14,13,00,14.50
2006,12,14,13,01,8.10
2006,12,14,13,02,6.40
2006,12,14,13,03,8.10
2006,12,14,13,04,6.40
2006,12,14,13,05,6.40
2006,12,14,13,06,9.60
2006,12,14,13,07,17.70
2006,12,14,13,08,19.30
2006,12,14,13,09,16.10
2006,12,14,13,10,11.30
2006,12,14,13,11,8.10
2006,12,14,13,12,11.30
2006,12,14,13,13,9.60
2006,12,14,13,14,8.10
2006,12,14,13,15,14.50
2006,12,14,13,16,14.50
2006,12,14,13,17,11.30
2006,12,14,13,18,9.60
2006,12,14,13,19,11.30
2006,12,14,13,20,11.30
2006,12,14,13,21,11.30
2006,12,14,13,22,9.60
2006,12,14,13,23,17.70
2006,12,14,13,24,19.30
2006,12,14,13,25,16.10
2006,12,14,13,26,4.80
2006,12,14,13,27,16.10
2006,12,14,13,28,9.60
2006,12,14,13,29,9.60
2006,12,14,13,30,11.30
2006,12,14,13,31,9.60
2006,12,14,13,32,9.60
2006,12,14,13,33,9.60
2006,12,14,13,34,6.40
2006,12,14,13,35,3.20
2006,12,14,13,36,6.40
2006,12,14,13,37,4.80
2006,12,14,13,38,3.20
2006,12,14,13,39,3.20
2006,12,14,13,40,11.30
2006,12,14,13,41,11.30
2006,12,14,13,42,12.90
2006,12,14,13,43,11.30
2006,12,14,13,44,19.30
2006,12,14,13,45,14.50
2006,12,14,13,46,9.60
2006,12,14,13,47,20.90
2006,12,14,13,48,17.70
2006,12,14,13,49,16.10
2006,12,14,13,50,19.30
2006,12,14,13,51,14.50
2006,12,14,13,52,6.40
2006,12,14,13,53,6.40
2006,12,14,13,54,6.40
2006,12,14,13,55,6.40
2006,12,14,13,56,6.40
2006,12,14,13,57,11.30
2006,12,14,13,58,9.60
2006,12,14,13,59,9.60
2006,12,14,14,00,6.40
2006,12,14,14,01,6.40
2006,12,14,14,02,11.30
2006,12,14,14,03,9.60
2006,12,14,14,04,9.60
2006,12,14,14,05,11.30
2006,12,14,14,06,6.40
2006,12,14,14,07,4.80
2006,12,14,14,08,3.20
2006,12,14,14,09,3.20
2006,12,14,14,10,4.80
2006,12,14,14,11,4.80
2006,12,14,14,12,3.20
2006,12,14,14,13,8.10
2006,12,14,14,14,6.40
2006,12,14,14,15,8.10
2006,12,14,14,16,11.30
2006,12,14,14,17,11.30
2006,12,14,14,18,11.30
2006,12,14,14,19,11.30
2006,12,14,14,20,8.10
2006,12,14,14,21,6.40
2006,12,14,14,22,16.10
2006,12,14,14,23,16.10
2006,12,14,14,24,20.90
2006,12,14,14,25,11.30
2006,12,14,14,26,14.50
2006,12,14,14,27,11.30
2006,12,14,14,28,8.10
2006,12,14,14,29,8.10
2006,12,14,14,30,4.80
2006,12,14,14,31,6.40
2006,12,14,14,32,8.10
2006,12,14,14,33,9.60
2006,12,14,14,34,6.40
2006,12,14,14,35,12.90
2006,12,14,14,36,11.30
2006,12,14,14,37,4.80
2006,12,14,14,38,8.10
2006,12,14,14,39,14.50
2006,12,14,14,40,14.50
2006,12,14,14,41,14.50
2006,12,14,14,42,6.40
2006,12,14,14,43,8.10
2006,12,14,14,44,9.60
2006,12,14,14,45,19.30
2006,12,14,14,46,19.30
2006,12,14,14,47,22.50
2006,12,14,14,48,16.10
2006,12,14,14,49,8.10
2006,12,14,14,50,16.10
2006,12,14,14,51,16.10
2006,12,14,14,52,11.30
2006,12,14,14,53,11.30
2006,12,14,14,54,9.60
2006,12,14,14,55,16.10
2006,12,14,14,56,22.50
2006,12,14,14,57,19.30
2006,12,14,14,58,19.30
2006,12,14,14,59,14.50
2006,12,14,15,00,16.10
2006,12,14,15,01,11.30
2006,12,14,15,02,14.50
2006,12,14,15,03,19.30
2006,12,14,15,04,22.50
2006,12,14,15,05,11.30
2006,12,14,15,06,17.70
2006,12,14,15,07,16.10
2006,12,14,15,08,14.50
2006,12,14,15,09,16.10
2006,12,14,15,10,16.10
2006,12,14,15,11,16.10
2006,12,14,15,12,17.70
2006,12,14,15,13,16.10
2006,12,14,15,14,14.50
2006,12,14,15,15,19.30
2006,12,14,15,16,17.70
2006,12,14,15,17,14.50
2006,12,14,15,18,14.50
2006,12,14,15,19,19.30
2006,12,14,15,20,14.50
2006,12,14,15,21,22.50
2006,12,14,15,22,16.10
2006,12,14,15,23,16.10
2006,12,14,15,24,19.30
2006,12,14,15,25,16.10
2006,12,14,15,26,11.30
2006,12,14,15,27,11.30
2006,12,14,15,28,11.30
2006,12,14,15,29,11.30
2006,12,14,15,30,9.60
2006,12,14,15,31,11.30
2006,12,14,15,32,6.40
2006,12,14,15,33,4.80
2006,12,14,15,34,8.10
2006,12,14,15,35,8.10
2006,12,14,15,36,11.30
2006,12,14,15,37,12.90
2006,12,14,15,38,11.30
2006,12,14,15,39,16.10
2006,12,14,15,40,16.10
2006,12,14,15,41,11.30
2006,12,14,15,42,16.10
2006,12,14,15,43,9.60
2006,12,14,15,44,14.50
2006,12,14,15,45,14.50
2006,12,14,15,46,14.50
2006,12,14,15,47,9.60
2006,12,14,15,48,11.30
2006,12,14,15,49,6.40
2006,12,14,15,50,9.60
2006,12,14,15,51,9.60
2006,12,14,15,52,9.60
2006,12,14,15,53,11.30
2006,12,14,15,54,16.10
2006,12,14,15,55,17.70
2006,12,14,15,56,17.70
2006,12,14,15,57,14.50
2006,12,14,15,58,17.70
2006,12,14,15,59,17.70
2006,12,14,16,00,8.10
2006,12,14,16,01,4.80
2006,12,14,16,02,4.80
2006,12,14,16,03,1.60
2006,12,14,16,04,3.20
2006,12,14,16,05,4.80
2006,12,14,16,06,4.80
2006,12,14,16,07,4.80
2006,12,14,16,08,3.20
2006,12,14,16,09,3.20
2006,12,14,16,10,6.40
2006,12,14,16,11,6.40
2006,12,14,16,12,9.60
2006,12,14,16,13,9.60
2006,12,14,16,14,11.30
2006,12,14,16,15,11.30
2006,12,14,16,16,8.10
2006,12,14,16,17,3.20
2006,12,14,16,18,3.20
2006,12,14,16,19,4.80
2006,12,14,16,20,9.60
2006,12,14,16,21,8.10
2006,12,14,16,22,9.60
2006,12,14,16,23,6.40
2006,12,14,16,24,6.40
2006,12,14,16,25,9.60
2006,12,14,16,26,6.40
2006,12,14,16,27,6.40
2006,12,14,16,28,6.40
2006,12,14,16,29,4.80
2006,12,14,16,30,4.80
2006,12,14,16,31,6.40
2006,12,14,16,32,8.10
2006,12,14,16,33,8.10
2006,12,14,16,34,9.60
2006,12,14,16,35,9.60
2006,12,14,16,36,12.90
2006,12,14,16,37,14.50
2006,12,14,16,38,14.50
2006,12,14,16,39,11.30
2006,12,14,16,40,16.10
2006,12,14,16,41,9.60
2006,12,14,16,42,9.60
2006,12,14,16,43,16.10
2006,12,14,16,44,6.40
2006,12,14,16,45,11.30
2006,12,14,16,46,16.10
2006,12,14,16,47,11.30
2006,12,14,16,48,11.30
2006,12,14,16,49,11.30
2006,12,14,16,50,9.60
2006,12,14,16,51,11.30
2006,12,14,16,52,14.50
2006,12,14,16,53,11.30
2006,12,14,16,54,8.10
2006,12,14,16,55,9.60
2006,12,14,16,56,11.30
2006,12,14,16,57,8.10
2006,12,14,16,58,16.10
2006,12,14,16,59,14.50
2006,12,14,17,00,16.10
2006,12,14,17,01,14.50
2006,12,14,17,02,12.90
2006,12,14,17,03,9.60
2006,12,14,17,04,9.60
2006,12,14,17,05,11.30
2006,12,14,17,06,11.30
2006,12,14,17,07,6.40
2006,12,14,17,08,8.10
2006,12,14,17,09,11.30
2006,12,14,17,10,8.10
2006,12,14,17,11,8.10
2006,12,14,17,12,11.30
2006,12,14,17,13,12.90
2006,12,14,17,14,9.60
2006,12,14,17,15,11.30
2006,12,14,17,16,12.90
2006,12,14,17,17,8.10
2006,12,14,17,18,6.40
2006,12,14,17,19,11.30
2006,12,14,17,20,11.30
2006,12,14,17,21,11.30
2006,12,14,17,22,11.30
2006,12,14,17,23,14.50
2006,12,14,17,24,16.10
2006,12,14,17,25,17.70
2006,12,14,17,26,16.10
2006,12,14,17,27,11.30
2006,12,14,17,28,8.10
2006,12,14,17,29,8.10
2006,12,14,17,30,6.40
2006,12,14,17,31,9.60
2006,12,14,17,32,8.10
2006,12,14,17,33,11.30
2006,12,14,17,34,11.30
2006,12,14,17,35,9.60
2006,12,14,17,36,14.50
2006,12,14,17,37,11.30
2006,12,14,17,38,16.10
2006,12,14,17,39,14.50
2006,12,14,17,40,12.90
2006,12,14,17,41,9.60
2006,12,14,17,42,6.40
2006,12,14,17,43,4.80